Tiempo cada hora Cedro

Hoy, 19 Abril, Lunes

Tiempo Temperatura Precipitaciones Viento Presión Humedad
00:00 +22°C° 0.1 mm 0 mps 736 mmHg 90%
01:00 +22°C° 0 mm 0 mps 736 mmHg 91%
02:00 +22°C° 0 mm 0 mps 736 mmHg 92%
03:00 +22°C° 0 mm 0 mps 736 mmHg 93%
04:00 +22°C° 0 mm 0 mps 736 mmHg 94%
05:00 +21°C° 0 mm 0 mps 736 mmHg 95%
06:00 +21°C° 0 mm 0 mps 737 mmHg 95%
07:00 +25°C° 0 mm 1 mps 737 mmHg 85%
08:00 +27°C° 0 mm 1 mps 738 mmHg 74%
09:00 +29°C° 0 mm 1 mps 738 mmHg 65%
10:00 +31°C° 0 mm 1 mps 738 mmHg 59%
11:00 +32°C° 0 mm 2 mps 737 mmHg 53%
12:00 +34°C° 0 mm 2 mps 736 mmHg 47%
13:00 +32°C° 0 mm 2 mps 736 mmHg 52%
14:00 +31°C° 0 mm 2 mps 735 mmHg 57%
15:00 +30°C° 0 mm 2 mps 735 mmHg 63%
16:00 +28°C° 0.2 mm 2 mps 735 mmHg 71%
17:00 +27°C° 0.2 mm 1 mps 735 mmHg 79%
18:00 +25°C° 0.2 mm 1 mps 736 mmHg 86%
19:00 +25°C° 0 mm 1 mps 736 mmHg 88%
20:00 +25°C° 0 mm 1 mps 736 mmHg 89%
21:00 +22°C° 0 mm 0 mps 737 mmHg 90%
22:00 +22°C° 0 mm 0 mps 737 mmHg 91%
23:00 +22°C° 0 mm 0 mps 737 mmHg 91%

Mañana, 20 Abril, Martes

Tiempo Temperatura Precipitaciones Viento Presión Humedad
00:00 +22°C° 0 mm 0 mps 736 mmHg 92%
01:00 +21°C° 0.2 mm 0 mps 736 mmHg 93%
02:00 +21°C° 0.2 mm 0 mps 736 mmHg 95%
03:00 +21°C° 0.2 mm 0 mps 736 mmHg 96%
04:00 +21°C° 0 mm 0 mps 736 mmHg 96%
05:00 +21°C° 0 mm 0 mps 736 mmHg 95%
06:00 +21°C° 0 mm 0 mps 737 mmHg 95%
07:00 +23°C° 0 mm 0 mps 737 mmHg 86%
08:00 +25°C° 0 mm 0 mps 737 mmHg 77%
09:00 +29°C° 0 mm 1 mps 738 mmHg 68%
10:00 +31°C° 0.1 mm 1 mps 737 mmHg 62%
11:00 +32°C° 0.1 mm 1 mps 737 mmHg 56%
12:00 +34°C° 0.1 mm 2 mps 736 mmHg 50%
13:00 +32°C° 0 mm 2 mps 736 mmHg 54%
14:00 +31°C° 0 mm 2 mps 735 mmHg 58%
15:00 +30°C° 0 mm 2 mps 735 mmHg 61%
16:00 +29°C° 0 mm 2 mps 735 mmHg 66%
17:00 +28°C° 0 mm 1 mps 735 mmHg 70%
18:00 +27°C° 0 mm 1 mps 735 mmHg 74%
19:00 +27°C° 0 mm 1 mps 736 mmHg 76%
20:00 +26°C° 0 mm 1 mps 736 mmHg 78%
21:00 +25°C° 0 mm 1 mps 736 mmHg 80%
22:00 +25°C° 0 mm 1 mps 736 mmHg 82%
23:00 +24°C° 0 mm 1 mps 737 mmHg 84%

Pasado mañana, 21 Abril, Miércoles

Tiempo Temperatura Precipitaciones Viento Presión Humedad
00:00 +24°C° 0 mm 1 mps 737 mmHg 86%
01:00 +23°C° 0 mm 1 mps 736 mmHg 89%
02:00 +21°C° 0 mm 0 mps 736 mmHg 92%
03:00 +20°C° 0 mm 0 mps 736 mmHg 95%
04:00 +20°C° 0 mm 0 mps 736 mmHg 95%
05:00 +20°C° 0 mm 0 mps 737 mmHg 95%
06:00 +20°C° 0 mm 0 mps 737 mmHg 95%
07:00 +23°C° 0 mm 0 mps 738 mmHg 84%
08:00 +27°C° 0 mm 1 mps 738 mmHg 74%
09:00 +30°C° 0 mm 1 mps 738 mmHg 63%
10:00 +31°C° 0 mm 1 mps 738 mmHg 58%
11:00 +32°C° 0 mm 2 mps 737 mmHg 53%
12:00 +35°C° 0 mm 2 mps 736 mmHg 47%
13:00 +34°C° 0.1 mm 2 mps 736 mmHg 51%
14:00 +32°C° 0.1 mm 2 mps 735 mmHg 55%
15:00 +31°C° 0.1 mm 2 mps 735 mmHg 59%
16:00 +30°C° 0 mm 2 mps 735 mmHg 65%
17:00 +28°C° 0 mm 1 mps 735 mmHg 72%
18:00 +27°C° 0 mm 1 mps 735 mmHg 78%
19:00 +27°C° 0 mm 1 mps 736 mmHg 80%
20:00 +26°C° 0 mm 1 mps 736 mmHg 81%
21:00 +23°C° 0 mm 0 mps 737 mmHg 82%
22:00 +25°C° 0 mm 1 mps 737 mmHg 86%
23:00 +24°C° 0 mm 1 mps 737 mmHg 89%

22 Abril, Jueves

Tiempo Temperatura Precipitaciones Viento Presión Humedad
00:00 +24°C° 0 mm 1 mps 737 mmHg 92%
01:00 +23°C° 0.1 mm 1 mps 737 mmHg 94%
02:00 +23°C° 0.1 mm 1 mps 736 mmHg 96%
03:00 +21°C° 0.1 mm 0 mps 736 mmHg 98%
04:00 +21°C° 0.1 mm 0 mps 737 mmHg 98%
05:00 +21°C° 0.1 mm 0 mps 737 mmHg 98%
06:00 +21°C° 0.1 mm 0 mps 737 mmHg 98%
07:00 +23°C° 0 mm 0 mps 737 mmHg 88%
08:00 +26°C° 0 mm 0 mps 738 mmHg 77%
09:00 +28°C° 0 mm 0 mps 738 mmHg 67%
10:00 +29°C° 0.3 mm 0 mps 738 mmHg 64%
11:00 +32°C° 0.3 mm 1 mps 737 mmHg 61%
12:00 +33°C° 0.3 mm 1 mps 736 mmHg 58%
13:00 +31°C° 1.3 mm 1 mps 736 mmHg 66%
14:00 +30°C° 1.3 mm 1 mps 735 mmHg 74%
15:00 +29°C° 1.3 mm 1 mps 735 mmHg 82%
16:00 +28°C° 1 mm 1 mps 735 mmHg 85%
17:00 +27°C° 1 mm 1 mps 735 mmHg 87%
18:00 +24°C° 1 mm 0 mps 736 mmHg 90%
19:00 +23°C° 0.6 mm 0 mps 736 mmHg 91%
20:00 +25°C° 0.6 mm 1 mps 736 mmHg 93%
21:00 +24°C° 0.6 mm 1 mps 737 mmHg 94%
22:00 +24°C° 0.8 mm 1 mps 737 mmHg 95%
23:00 +22°C° 0.8 mm 0 mps 737 mmHg 96%

23 Abril, Viernes

Tiempo Temperatura Precipitaciones Viento Presión Humedad
00:00 +22°C° 0.8 mm 0 mps 737 mmHg 97%
01:00 +21°C° 0.5 mm 0 mps 737 mmHg 97%
02:00 +21°C° 0.5 mm 0 mps 737 mmHg 98%
03:00 +21°C° 0.5 mm 0 mps 736 mmHg 98%
04:00 +21°C° 0 mm 0 mps 737 mmHg 98%
05:00 +21°C° 0 mm 0 mps 737 mmHg 98%
06:00 +22°C° 0 mm 0 mps 737 mmHg 97%
07:00 +23°C° 0.3 mm 0 mps 738 mmHg 92%
08:00 +24°C° 0.3 mm 0 mps 738 mmHg 87%
09:00 +26°C° 0.3 mm 0 mps 739 mmHg 82%
10:00 +28°C° 0.7 mm 1 mps 738 mmHg 81%
11:00 +29°C° 0.7 mm 1 mps 737 mmHg 80%
12:00 +30°C° 0.7 mm 2 mps 737 mmHg 79%
13:00 +30°C° 1.1 mm 1 mps 736 mmHg 78%
14:00 +30°C° 1.1 mm 1 mps 736 mmHg 76%
15:00 +30°C° 1.1 mm 1 mps 735 mmHg 75%
16:00 +29°C° 0.4 mm 1 mps 735 mmHg 79%
17:00 +27°C° 0.4 mm 1 mps 735 mmHg 84%
18:00 +26°C° 0.4 mm 1 mps 735 mmHg 88%
19:00 +26°C° 0 mm 1 mps 736 mmHg 90%
20:00 +25°C° 0 mm 1 mps 736 mmHg 91%
21:00 +25°C° 0 mm 1 mps 736 mmHg 93%
22:00 +25°C° 0.1 mm 1 mps 736 mmHg 93%
23:00 +25°C° 0.1 mm 1 mps 736 mmHg 93%

24 Abril, Sábado

Tiempo Temperatura Precipitaciones Viento Presión Humedad
00:00 +25°C° 0.1 mm 1 mps 736 mmHg 93%
01:00 +24°C° 0 mm 1 mps 736 mmHg 94%
02:00 +24°C° 0 mm 1 mps 735 mmHg 95%
03:00 +24°C° 0 mm 1 mps 735 mmHg 96%
04:00 +22°C° 0 mm 0 mps 735 mmHg 96%
05:00 +22°C° 0 mm 0 mps 736 mmHg 96%
06:00 +22°C° 0 mm 0 mps 736 mmHg 97%
07:00 +24°C° 0 mm 0 mps 737 mmHg 85%
08:00 +28°C° 0 mm 1 mps 737 mmHg 72%
09:00 +30°C° 0 mm 1 mps 738 mmHg 60%
10:00 +31°C° 0 mm 2 mps 737 mmHg 51%
11:00 +34°C° 0 mm 2 mps 737 mmHg 42%
12:00 +35°C° 0 mm 2 mps 736 mmHg 32%
13:00 +36°C° 0 mm 2 mps 736 mmHg 31%
14:00 +36°C° 0 mm 2 mps 735 mmHg 30%
15:00 +36°C° 0 mm 3 mps 734 mmHg 29%
16:00 +32°C° 0 mm 2 mps 734 mmHg 41%
17:00 +30°C° 0 mm 2 mps 735 mmHg 52%
18:00 +27°C° 0 mm 2 mps 735 mmHg 63%
19:00 +26°C° 0 mm 1 mps 735 mmHg 68%
20:00 +26°C° 0 mm 1 mps 736 mmHg 74%
21:00 +25°C° 0 mm 1 mps 736 mmHg 79%
22:00 +25°C° 0 mm 1 mps 736 mmHg 84%
23:00 +22°C° 0 mm 0 mps 736 mmHg 88%
Mostrar más

Necesitamos Su Consentimiento

Meteoprog y nuestros Proveedores de Servicios pueden almacenar y acceder a sus datos personales como cookies, identificadores de dispositivo u otras tecnologías similares de su dispositivo y procesar dichos datos para personalizar contenido y anuncios, además de ofrecer funciones de redes sociales y analizar el tráfico.

  • Almacenar y/o acceder a información en su dispositivo

    Se puede almacenar o acceder a cookies, identificadores de dispositivo u otra información de su dispositivo para los fines anteriormente indicados.

  • Anuncios y contenido personalizados, medición de anuncios y contenido, percepciones del público, y desarrollo de productos

    Los anuncios y el contenido pueden personalizarse en base a su perfil. Se pueden añadir más datos para personalizar mejor los anuncios y contenidos. Se puede medir el rendimiento de los anuncios y contenidos. Se puede obtener la percepción sobre el público que ha visto los anuncios y contenidos. Dichos datos pueden usarse para desarrollar o mejorar la experiencia del usuario, sistemas y software.

Al hacer clic en ‘Estoy De Acuerdo’ usted permitirá el uso de las cookies, identificadores de dispositivo, balizas web u otras tecnologías similares indicadas. Su configuración puede cambiarse desde el navegador de su dispositivo.

Para ciertos fines, los intereses legítimos pueden ser considerados por encima del consentimiento. Puede leer más sobre ello en nuestra Política de Privacidad y Cookies.